{"data":{"norad_id":47862,"epoch":"2026-05-24T19:01:00.059520Z","epoch_age_seconds":103062,"freshness":"FRESH","line1":"1 47862U 21021C   26144.79236180  .00069175  00000+0  11877-2 0  9999","line2":"2 47862  53.1573 257.1581 0004234 339.4408  20.6431 15.50543323288146","mean_motion":15.50543323,"eccentricity":0.0004234,"inclination_deg":53.1573,"raan_deg":257.1581,"arg_perigee_deg":339.4408,"mean_anomaly_deg":20.6431,"bstar":0.0011877,"rev_number":28814,"period_min":92.870671760005,"perigee_km":412.26238670563,"apogee_km":418.0149325342,"semimajor_km":6793.2756596199,"source":"CELESTRAK","updated_at":"2026-05-25T13:38:16.609576Z"}}